Time,TemperatureF,DewpointF,PressureIn,WindDirection,WindDirectionDegrees,WindSpeedMPH,WindSpeedGustMPH,Humidity,HourlyPrecipIn,Conditions,Clouds,dailyrainin,SoftwareType,DateUTC
2013-01-06 00:10:00,25.9,19.7,30.15,NW,315,0.0,-999.0,77,-99.99,,,0.00,Acu-Link.com,2013-01-06 05:10:00,
2013-01-06 00:25:00,25.7,19.8,30.13,West,270,0.0,-999.0,78,-99.99,,,0.00,Acu-Link.com,2013-01-06 05:25:00,
2013-01-06 00:41:00,25.7,19.8,30.12,West,270,0.0,-999.0,78,-99.99,,,0.00,Acu-Link.com,2013-01-06 05:41:00,
2013-01-06 00:56:00,25.3,19.7,30.11,West,270,0.0,-999.0,79,-99.99,,,0.00,Acu-Link.com,2013-01-06 05:56:00,
2013-01-06 01:12:00,25.9,20.0,30.10,North,0,0.0,-999.0,78,-99.99,,,0.00,Acu-Link.com,2013-01-06 06:12:00,
2013-01-06 01:28:00,26.2,20.0,30.12,West,270,0.0,-999.0,77,-99.99,,,0.00,Acu-Link.com,2013-01-06 06:28:00,
2013-01-06 01:43:00,27.0,20.5,30.13,WNW,292,0.0,-999.0,76,-99.99,,,0.00,Acu-Link.com,2013-01-06 06:43:00,
2013-01-06 01:58:00,27.1,20.2,30.15,WSW,247,2.2,-999.0,75,-99.99,,,0.00,Acu-Link.com,2013-01-06 06:58:00,
2013-01-06 02:13:00,27.9,21.0,30.15,West,270,6.3,-999.0,75,-99.99,,,0.00,Acu-Link.com,2013-01-06 07:13:00,
2013-01-06 02:29:00,28.0,20.8,30.14,WNW,292,1.1,-999.0,74,-99.99,,,0.00,Acu-Link.com,2013-01-06 07:29:00,
2013-01-06 02:44:00,28.2,21.0,30.13,North,0,1.1,-999.0,74,-99.99,,,0.00,Acu-Link.com,2013-01-06 07:44:00,
2013-01-06 03:00:00,28.0,20.8,30.12,West,270,0.0,-999.0,74,-99.99,,,0.00,Acu-Link.com,2013-01-06 08:00:00,
2013-01-06 03:15:00,28.0,20.5,30.12,NNW,337,0.0,-999.0,73,-99.99,,,0.00,Acu-Link.com,2013-01-06 08:15:00,
2013-01-06 03:30:00,28.0,20.5,30.10,WNW,292,0.0,-999.0,73,-99.99,,,0.00,Acu-Link.com,2013-01-06 08:30:00,
2013-01-06 03:46:00,27.9,20.4,30.10,SSW,202,0.0,-999.0,73,-99.99,,,0.00,Acu-Link.com,2013-01-06 08:46:00,
2013-01-06 04:01:00,27.9,20.4,30.09,SW,225,0.0,-999.0,73,-99.99,,,0.00,Acu-Link.com,2013-01-06 09:01:00,
2013-01-06 04:16:00,27.9,20.4,30.07,West,270,0.0,-999.0,73,-99.99,,,0.00,Acu-Link.com,2013-01-06 09:16:00,
2013-01-06 04:31:00,28.8,20.9,30.08,East,90,0.0,-999.0,72,-99.99,,,0.00,Acu-Link.com,2013-01-06 09:31:00,
2013-01-06 04:46:00,29.5,21.9,30.07,NNE,22,1.1,-999.0,73,-99.99,,,0.00,Acu-Link.com,2013-01-06 09:46:00,
2013-01-06 05:02:00,29.5,22.3,30.05,NW,315,2.7,-999.0,74,-99.99,,,0.00,Acu-Link.com,2013-01-06 10:02:00,
2013-01-06 05:17:00,29.3,21.4,30.05,ENE,67,1.7,-999.0,72,-99.99,,,0.00,Acu-Link.com,2013-01-06 10:17:00,
2013-01-06 05:33:00,29.3,21.7,30.05,South,180,2.2,-999.0,73,-99.99,,,0.00,Acu-Link.com,2013-01-06 10:33:00,
2013-01-06 05:48:00,29.5,21.9,30.04,SSW,202,2.2,-999.0,73,-99.99,,,0.00,Acu-Link.com,2013-01-06 10:48:00,
2013-01-06 06:04:00,29.8,21.2,30.03,WNW,292,0.0,-999.0,70,-99.99,,,0.00,Acu-Link.com,2013-01-06 11:04:00,
2013-01-06 06:19:00,29.8,21.9,30.04,North,0,0.0,-999.0,72,-99.99,,,0.00,Acu-Link.com,2013-01-06 11:19:00,
2013-01-06 06:34:00,29.8,22.2,30.03,West,270,0.0,-999.0,73,-99.99,,,0.00,Acu-Link.com,2013-01-06 11:34:00,
2013-01-06 06:49:00,30.0,23.7,30.01,SW,225,1.1,-999.0,77,-99.99,,,0.00,Acu-Link.com,2013-01-06 11:49:00,
2013-01-06 07:05:00,30.6,25.8,30.02,ENE,67,4.2,-999.0,82,-99.99,,,0.00,Acu-Link.com,2013-01-06 12:05:00,
2013-01-06 07:20:00,30.7,26.2,30.01,SSW,202,1.1,-999.0,83,-99.99,,,0.00,Acu-Link.com,2013-01-06 12:20:00,
2013-01-06 07:36:00,30.9,26.4,30.00,SW,225,2.7,-999.0,83,-99.99,,,0.00,Acu-Link.com,2013-01-06 12:36:00,
2013-01-06 07:51:00,31.5,26.9,30.00,WSW,247,5.3,-999.0,83,-99.99,,,0.00,Acu-Link.com,2013-01-06 12:51:00,
2013-01-06 08:06:00,31.6,27.0,29.99,WSW,247,6.3,-999.0,83,-99.99,,,0.00,Acu-Link.com,2013-01-06 13:06:00,
2013-01-06 08:22:00,32.2,27.6,29.98,NW,315,5.8,-999.0,83,-99.99,,,0.00,Acu-Link.com,2013-01-06 13:22:00,
2013-01-06 08:37:00,32.7,27.5,30.00,WSW,247,4.7,-999.0,81,-99.99,,,0.00,Acu-Link.com,2013-01-06 13:37:00,
2013-01-06 08:52:00,33.6,26.9,30.00,SW,225,10.4,-999.0,76,-99.99,,,0.00,Acu-Link.com,2013-01-06 13:52:00,
2013-01-06 09:08:00,34.3,26.9,29.99,NNW,337,3.7,-999.0,74,-99.99,,,0.00,Acu-Link.com,2013-01-06 14:08:00,
2013-01-06 09:23:00,35.2,26.8,29.97,WSW,247,6.3,-999.0,71,-99.99,,,0.00,Acu-Link.com,2013-01-06 14:23:00,
2013-01-06 09:38:00,36.1,27.3,29.97,WSW,247,6.8,-999.0,70,-99.99,,,0.00,Acu-Link.com,2013-01-06 14:38:00,
2013-01-06 09:54:00,36.7,26.8,29.98,West,270,5.3,-999.0,67,-99.99,,,0.00,Acu-Link.com,2013-01-06 14:54:00,
2013-01-06 10:09:00,37.6,26.9,29.98,South,180,7.3,-999.0,65,-99.99,,,0.00,Acu-Link.com,2013-01-06 15:09:00,
2013-01-06 10:25:00,37.9,27.2,29.96,WNW,292,11.4,-999.0,65,-99.99,,,0.00,Acu-Link.com,2013-01-06 15:25:00,
2013-01-06 10:40:00,37.9,26.8,29.97,NW,315,4.2,-999.0,64,-99.99,,,0.00,Acu-Link.com,2013-01-06 15:40:00,
2013-01-06 10:56:00,38.7,27.2,29.95,WSW,247,5.8,-999.0,63,-99.99,,,0.00,Acu-Link.com,2013-01-06 15:56:00,
2013-01-06 11:11:00,38.8,26.9,29.92,SW,225,8.9,-999.0,62,-99.99,,,0.00,Acu-Link.com,2013-01-06 16:11:00,
2013-01-06 11:26:00,39.9,27.6,29.92,NE,45,6.8,-999.0,61,-99.99,,,0.00,Acu-Link.com,2013-01-06 16:26:00,
2013-01-06 11:41:00,40.6,27.8,29.91,WSW,247,7.3,-999.0,60,-99.99,,,0.00,Acu-Link.com,2013-01-06 16:41:00,
2013-01-06 11:57:00,41.0,27.8,29.89,West,270,7.8,-999.0,59,-99.99,,,0.00,Acu-Link.com,2013-01-06 16:57:00,
2013-01-06 12:12:00,41.4,27.3,29.87,SSW,202,7.3,-999.0,57,-99.99,,,0.00,Acu-Link.com,2013-01-06 17:12:00,
2013-01-06 12:28:00,42.1,28.0,29.87,NW,315,5.3,-999.0,57,-99.99,,,0.00,Acu-Link.com,2013-01-06 17:28:00,
2013-01-06 12:43:00,42.4,27.8,29.86,WSW,247,4.7,-999.0,56,-99.99,,,0.00,Acu-Link.com,2013-01-06 17:43:00,
2013-01-06 12:58:00,43.3,28.2,29.88,SSW,202,8.3,-999.0,55,-99.99,,,0.00,Acu-Link.com,2013-01-06 17:58:00,
2013-01-06 13:14:00,43.0,28.0,29.85,SE,135,6.3,-999.0,55,-99.99,,,0.00,Acu-Link.com,2013-01-06 18:14:00,
2013-01-06 13:29:00,43.5,28.4,29.85,SSW,202,2.2,-999.0,55,-99.99,,,0.00,Acu-Link.com,2013-01-06 18:29:00,
2013-01-06 13:45:00,44.1,28.5,29.85,West,270,5.3,-999.0,54,-99.99,,,0.00,Acu-Link.com,2013-01-06 18:45:00,
2013-01-06 14:00:00,44.2,28.6,29.87,SW,225,3.2,-999.0,54,-99.99,,,0.00,Acu-Link.com,2013-01-06 19:00:00,
2013-01-06 14:15:00,44.2,27.7,29.86,West,270,3.2,-999.0,52,-99.99,,,0.00,Acu-Link.com,2013-01-06 19:15:00,
2013-01-06 14:31:00,44.4,27.9,29.87,WSW,247,4.7,-999.0,52,-99.99,,,0.00,Acu-Link.com,2013-01-06 19:31:00,
2013-01-06 14:46:00,44.2,28.2,29.85,SSE,157,6.3,-999.0,53,-99.99,,,0.00,Acu-Link.com,2013-01-06 19:46:00,
2013-01-06 15:01:00,43.7,28.2,29.87,SSE,157,5.8,-999.0,54,-99.99,,,0.00,Acu-Link.com,2013-01-06 20:01:00,
2013-01-06 15:17:00,43.2,28.1,29.85,WNW,292,4.7,-999.0,55,-99.99,,,0.00,Acu-Link.com,2013-01-06 20:17:00,
2013-01-06 15:32:00,42.6,28.0,29.86,NNE,22,3.7,-999.0,56,-99.99,,,0.00,Acu-Link.com,2013-01-06 20:32:00,
2013-01-06 15:48:00,43.2,28.1,29.86,SSW,202,2.2,-999.0,55,-99.99,,,0.00,Acu-Link.com,2013-01-06 20:48:00,
2013-01-06 16:03:00,41.2,27.6,29.84,West,270,3.2,-999.0,58,-99.99,,,0.00,Acu-Link.com,2013-01-06 21:03:00,
2013-01-06 16:18:00,39.9,27.6,29.88,North,0,1.7,-999.0,61,-99.99,,,0.00,Acu-Link.com,2013-01-06 21:18:00,
2013-01-06 16:34:00,38.5,27.4,29.87,NNW,337,2.2,-999.0,64,-99.99,,,0.00,Acu-Link.com,2013-01-06 21:34:00,
2013-01-06 16:49:00,37.6,26.9,29.87,ENE,67,0.0,-999.0,65,-99.99,,,0.00,Acu-Link.com,2013-01-06 21:49:00,
2013-01-06 17:05:00,36.3,26.4,29.86,SSW,202,1.7,-999.0,67,-99.99,,,0.00,Acu-Link.com,2013-01-06 22:05:00,
2013-01-06 17:20:00,36.0,26.5,29.88,SSW,202,2.2,-999.0,68,-99.99,,,0.00,Acu-Link.com,2013-01-06 22:20:00,
2013-01-06 17:35:00,35.6,26.5,29.87,SW,225,1.7,-999.0,69,-99.99,,,0.00,Acu-Link.com,2013-01-06 22:35:00,
2013-01-06 17:51:00,35.1,26.0,29.88,WSW,247,1.1,-999.0,69,-99.99,,,0.00,Acu-Link.com,2013-01-06 22:51:00,
2013-01-06 18:07:00,34.7,26.3,29.89,WSW,247,1.1,-999.0,71,-99.99,,,0.00,Acu-Link.com,2013-01-06 23:07:00,
2013-01-06 18:22:00,34.7,26.3,29.88,SW,225,0.0,-999.0,71,-99.99,,,0.00,Acu-Link.com,2013-01-06 23:22:00,
2013-01-06 18:38:00,34.7,26.3,29.89,SW,225,1.7,-999.0,71,-99.99,,,0.00,Acu-Link.com,2013-01-06 23:38:00,
2013-01-06 18:53:00,35.2,26.8,29.89,West,270,1.1,-999.0,71,-99.99,,,0.00,Acu-Link.com,2013-01-06 23:53:00,
2013-01-06 19:09:00,36.0,27.2,29.88,WSW,247,2.2,-999.0,70,-99.99,,,0.00,Acu-Link.com,2013-01-07 00:09:00,
2013-01-06 19:25:00,36.3,27.1,29.87,SW,225,2.2,-999.0,69,-99.99,,,0.00,Acu-Link.com,2013-01-07 00:25:00,
2013-01-06 19:43:00,36.5,27.3,29.87,SW,225,1.7,-999.0,69,-99.99,,,0.00,Acu-Link.com,2013-01-07 00:43:00,
2013-01-06 20:31:00,36.1,27.3,29.87,SSW,202,0.0,-999.0,70,-99.99,,,0.00,Acu-Link.com,2013-01-07 01:31:00,
2013-01-06 20:47:00,36.0,27.2,29.87,NNW,337,0.0,-999.0,70,-99.99,,,0.00,Acu-Link.com,2013-01-07 01:47:00,
2013-01-06 21:03:00,36.0,27.5,29.87,SSW,202,0.0,-999.0,71,-99.99,,,0.00,Acu-Link.com,2013-01-07 02:03:00,
2013-01-06 21:19:00,35.8,27.3,29.89,WNW,292,0.0,-999.0,71,-99.99,,,0.00,Acu-Link.com,2013-01-07 02:19:00,
2013-01-06 21:34:00,35.4,26.9,29.86,NNW,337,0.0,-999.0,71,-99.99,,,0.00,Acu-Link.com,2013-01-07 02:34:00,
2013-01-06 21:49:00,36.3,28.2,29.88,West,270,2.7,-999.0,72,-99.99,,,0.00,Acu-Link.com,2013-01-07 02:49:00,
2013-01-06 22:52:00,36.9,28.0,29.87,SSW,202,1.7,-999.0,70,-99.99,,,0.00,Acu-Link.com,2013-01-07 03:52:00,
2013-01-06 23:10:00,36.1,27.6,29.89,SSW,202,3.2,-999.0,71,-99.99,,,0.00,Acu-Link.com,2013-01-07 04:10:00,